Newport Airport, OR

10:15 PM PDT on April 21, 2018 (GMT -0700)
Newport Municipal

Weather History for KONP - October, 2010

Change the Weather History Date:

Wednesday, October 27, 2010

  Actual Average Record
Temperature  
Mean Temperature 47 °F -  
Max Temperature 53 °F 54 °F 77 °F (2017)
Min Temperature 41 °F 43 °F 33 °F (1998)
Degree Days  
Heating Degree Days 18    
Moisture  
Dew Point 41 °F    
Average Humidity 77    
Maximum Humidity 93    
Minimum Humidity 58    
Precipitation  
Precipitation 0.00 in - - ()
Sea Level Pressure  
Sea Level Pressure 30.03 in    
Wind  
Wind Speed 8 mph (ESE)    
Max Wind Speed 18 mph    
Max Gust Speed 22 mph    
Visibility 10 miles    
Events Rain    
Averages and records for this station are not official NWS values.
T = Trace of Precipitation, MM = Missing Value Source: NWS Daily Summary

Daily Weather History Graph

Daily Weather History Graph

Search for Another Location

Airport or City:

Astronomy

Oct. 27, 2010 Rise Set
Actual Time 7:47 AM PDT 6:12 PM PDT
Civil Twilight 7:17 AM PDT 6:42 PM PDT
Nautical Twilight 6:43 AM PDT 7:16 PM PDT
Astronomical Twilight 6:09 AM PDT 7:50 PM PDT
Moon 9:33 PM PDT (10/27) 12:34 PM PDT (10/27)
Length of Visible Light 11h 25m
Length of Day
10h 25m
Waning Gibbous, 78% of the Moon is Illuminated
Oct 27
Waning Gibbous
Oct 30
Last Quarter
Nov 5
New
Nov 13
First Quarter
Nov 21
Full

Hourly Weather History & Observations

Time (PDT) Temp. Windchill Dew Point Humidity Pressure Visibility Wind Dir Wind Speed Gust Speed Precip Events Conditions
12:10 AM 44.6 °F 42.2 °F 42.8 °F 93% 30.21 in 10.0 mi SSE 4.6 mph - N/A   Clear
12:30 AM 44.6 °F 42.2 °F 42.8 °F 93% 30.21 in 10.0 mi SSE 4.6 mph - N/A   Clear
12:50 AM 44.6 °F 42.2 °F 42.8 °F 93% 30.21 in 10.0 mi SSE 4.6 mph - N/A   Clear
1:10 AM 44.6 °F 41.4 °F 42.8 °F 93% 30.21 in 10.0 mi SE 5.8 mph - N/A   Clear
1:30 AM 44.6 °F 41.4 °F 42.8 °F 93% 30.20 in 10.0 mi ESE 5.8 mph - N/A   Clear
1:50 AM 44.6 °F 40.7 °F 42.8 °F 93% 30.20 in 10.0 mi ESE 6.9 mph - N/A   Scattered Clouds
2:10 AM 44.6 °F 42.2 °F 42.8 °F 93% 30.20 in 10.0 mi ESE 4.6 mph - N/A   Overcast
2:30 AM 42.8 °F 39.3 °F 41.0 °F 93% 30.19 in 10.0 mi East 5.8 mph - N/A   Scattered Clouds
2:50 AM 42.8 °F 38.0 °F 41.0 °F 93% 30.19 in 10.0 mi ESE 8.1 mph - N/A   Clear
3:10 AM 42.8 °F 38.6 °F 41.0 °F 93% 30.19 in 10.0 mi East 6.9 mph - N/A   Clear
3:30 AM 42.8 °F 38.6 °F 41.0 °F 93% 30.17 in 10.0 mi East 6.9 mph - N/A   Clear
3:50 AM 42.8 °F 38.0 °F 39.2 °F 87% 30.16 in 10.0 mi East 8.1 mph - N/A   Clear
4:10 AM 42.8 °F 38.0 °F 39.2 °F 87% 30.16 in 10.0 mi East 8.1 mph - N/A   Clear
4:30 AM 42.8 °F 38.6 °F 39.2 °F 87% 30.15 in 10.0 mi East 6.9 mph - N/A   Clear
4:50 AM 42.8 °F 38.0 °F 39.2 °F 87% 30.15 in 10.0 mi East 8.1 mph - N/A   Clear
5:10 AM 42.8 °F 38.6 °F 39.2 °F 87% 30.14 in 10.0 mi East 6.9 mph - N/A   Clear
5:52 AM 42.8 °F 38.0 °F 39.2 °F 87% 30.12 in 10.0 mi East 8.1 mph - N/A   Clear
6:10 AM 42.8 °F 39.3 °F 39.2 °F 87% 30.11 in 10.0 mi East 5.8 mph - N/A   Clear
6:30 AM 41.0 °F 37.1 °F 39.2 °F 93% 30.10 in 10.0 mi East 5.8 mph - N/A   Clear
6:50 AM 42.8 °F 37.5 °F 39.2 °F 87% 30.09 in 10.0 mi East 9.2 mph - N/A   Clear
7:10 AM 42.8 °F 36.2 °F 39.2 °F 87% 30.07 in 10.0 mi East 12.7 mph - N/A   Clear
7:30 AM 42.8 °F 35.8 °F 39.2 °F 87% 30.06 in 10.0 mi East 13.8 mph - N/A   Clear
7:50 AM 42.8 °F 35.4 °F 39.2 °F 87% 30.05 in 10.0 mi East 15.0 mph - N/A   Clear
8:10 AM 42.8 °F 35.1 °F 39.2 °F 87% 30.04 in 10.0 mi East 16.1 mph - N/A   Clear
8:30 AM 44.6 °F 36.9 °F 39.2 °F 81% 30.03 in 10.0 mi East 18.4 mph - N/A   Clear
9:10 AM 44.6 °F 37.4 °F 39.2 °F 81% 30.01 in 10.0 mi East 16.1 mph - N/A   Clear
9:30 AM 46.4 °F 40.4 °F 39.2 °F 76% 30.01 in 10.0 mi East 13.8 mph 21.9 mph N/A   Clear
9:50 AM 46.4 °F 40.1 °F 39.2 °F 76% 30.00 in 10.0 mi East 15.0 mph 20.7 mph N/A   Clear
10:10 AM 48.2 °F - 41.0 °F 76% 30.00 in 10.0 mi East 12.7 mph 18.4 mph N/A   Clear
10:30 AM 48.2 °F - 39.2 °F 71% 29.99 in 10.0 mi East 13.8 mph 20.7 mph N/A   Clear
10:50 AM 50.0 °F - 39.2 °F 66% 29.98 in 10.0 mi East 11.5 mph 18.4 mph N/A   Clear
11:10 AM 51.8 °F - 41.0 °F 67% 29.97 in 10.0 mi East 16.1 mph 19.6 mph N/A   Clear
11:30 AM 51.8 °F - 41.0 °F 67% 29.98 in 10.0 mi ESE 11.5 mph 18.4 mph N/A   Clear
11:50 AM 51.8 °F - 41.0 °F 67% 29.98 in 10.0 mi ESE 6.9 mph - N/A   Clear
12:10 PM 51.8 °F - 39.2 °F 62% 29.97 in 10.0 mi ESE 9.2 mph - N/A   Clear
12:30 PM 53.6 °F - 39.2 °F 58% 29.97 in 10.0 mi ESE 8.1 mph - N/A   Clear
12:50 PM 53.6 °F - 39.2 °F 58% 29.97 in 10.0 mi ESE 6.9 mph - N/A   Clear
1:12 PM 53.6 °F - 39.2 °F 58% 29.96 in 10.0 mi ESE 9.2 mph - N/A   Clear
1:30 PM 53.6 °F - 39.2 °F 58% 29.96 in 10.0 mi ESE 8.1 mph - N/A   Clear
1:50 PM 53.6 °F - 39.2 °F 58% 29.95 in 10.0 mi ESE 8.1 mph - N/A   Scattered Clouds
2:10 PM 53.6 °F - 39.2 °F 58% 29.95 in 10.0 mi ESE 6.9 mph - N/A   Scattered Clouds
2:30 PM 51.8 °F - 41.0 °F 67% 29.94 in 10.0 mi ESE 9.2 mph - N/A   Mostly Cloudy
2:50 PM 53.6 °F - 39.2 °F 58% 29.94 in 10.0 mi ESE 5.8 mph - N/A   Overcast
3:10 PM 53.6 °F - 41.0 °F 62% 29.95 in 10.0 mi ESE 5.8 mph - N/A   Overcast
3:30 PM 51.8 °F - 41.0 °F 67% 29.93 in 10.0 mi East 6.9 mph - N/A Rain Light Rain
3:50 PM 51.8 °F - 41.0 °F 67% 29.93 in 10.0 mi East 12.7 mph - N/A   Overcast
4:10 PM 51.8 °F - 39.2 °F 62% 29.93 in 10.0 mi SE 9.2 mph - N/A   Overcast
4:30 PM 51.8 °F - 39.2 °F 62% 29.90 in 10.0 mi ENE 15.0 mph - N/A Rain Rain
4:50 PM 51.8 °F - 39.2 °F 62% 29.89 in 10.0 mi East 13.8 mph 18.4 mph N/A   Overcast
5:10 PM 51.8 °F - 39.2 °F 62% 29.90 in 10.0 mi East 11.5 mph 21.9 mph N/A   Overcast
5:30 PM 51.8 °F - 41.0 °F 67% 29.89 in 10.0 mi East 17.3 mph 21.9 mph N/A   Overcast
5:50 PM 51.8 °F - 42.8 °F 71% 29.88 in 10.0 mi East 10.4 mph - N/A   Overcast
6:10 PM 51.8 °F - 42.8 °F 71% 29.87 in 10.0 mi East 13.8 mph - N/A   Overcast
6:30 PM 51.8 °F - 42.8 °F 71% 29.88 in 10.0 mi East 15.0 mph - N/A   Overcast
6:50 PM 51.8 °F - 42.8 °F 71% 29.88 in 10.0 mi SSE 6.9 mph - N/A Rain Rain
7:10 PM 50.0 °F - 44.6 °F 82% 29.87 in 10.0 mi East 9.2 mph - N/A   Overcast
7:30 PM 48.2 °F - 42.8 °F 82% 29.86 in 10.0 mi East 11.5 mph - N/A   Overcast
7:50 PM 50.0 °F - 42.8 °F 76% 29.86 in 10.0 mi East 10.4 mph - N/A   Overcast
8:10 PM 50.0 °F - 42.8 °F 76% 29.86 in 10.0 mi East 12.7 mph - N/A   Overcast
8:30 PM 50.0 °F - 42.8 °F 76% 29.86 in 10.0 mi East 11.5 mph - N/A   Overcast
8:50 PM 50.0 °F - 42.8 °F 76% 29.86 in 10.0 mi East 11.5 mph - N/A   Overcast
9:10 PM 48.2 °F - 44.6 °F 87% 29.86 in 10.0 mi East 8.1 mph - N/A Rain Light Rain
9:30 PM 48.2 °F - 42.8 °F 82% 29.85 in 10.0 mi East 9.2 mph - N/A   Overcast
9:52 PM 48.2 °F - 42.8 °F 82% 29.85 in 10.0 mi East 6.9 mph - N/A   Overcast
10:10 PM 48.2 °F - 42.8 °F 82% 29.85 in 10.0 mi East 6.9 mph - N/A   Overcast
10:30 PM 48.2 °F - 44.6 °F 87% 29.85 in 10.0 mi East 9.2 mph - N/A   Overcast
11:12 PM 50.0 °F - 42.8 °F 76% 29.83 in 10.0 mi ESE 9.2 mph - N/A   Overcast
11:30 PM 50.0 °F - 44.6 °F 82% 29.83 in 10.0 mi East 9.2 mph - N/A   Overcast
11:50 PM 53.6 °F - 42.8 °F 67% 29.83 in 10.0 mi ESE 8.1 mph - N/A   Overcast